Flag for Palestinian Territories Weather past 2 weeks in Hebron, West Bank, Palestinian Territories

63 °F

Rain. Partly sunny.

Feels Like: 63 °F
Forecast: 46 / 51 °F
Wind: 2 mph from North

Location: Ben Gurion International Airport

Current Time: Nov 30, 2015 at 2:32:04 PM

Latest Report: Nov 30, 2015 at 1:50 PM

Visibility: 4 mi

Pressure: 29.98 "Hg (26.98 "Hg at 894m altitude)

Humidity: 94%

Dew point: 61 °F

Location of HebronLocation

Historic Weather in Hebron — Graph


Hebron temperature yesterday

Maximum temperature yesterday: 75 °F (at 12:20 PM)
Minimum temperature yesterday: 55 °F (at 2:50 AM)
Average temperature yesterday: 65 °F

Past Weeks' High & Low Weather Summary

High90 °F (Nov 15, 1:50 PM)94% (Nov 16, 11:20 AM)30.18 "Hg (Nov 16, 11:20 AM)
Low55 °F (Nov 24, 6:20 AM)25% (Nov 25, 9:20 AM)29.74 "Hg (Nov 16, 11:50 AM)
Average67 °F61%30.00 "Hg
* Reported Nov 15 1:20 PM — Nov 30 1:20 PM, Hebron, Weather by CustomWeather, © 2015

Note: Actual official high and low records may vary slightly from our data, if they occured in-between our weather recording intervals... More about our weather records


Hebron weather history for previous 24 hours

Time TempWeatherWind HumidityBarometerVisibility
1:20 PM
Mon, Nov 30
72 °FPartly sunny.10 mph57%29.98 "HgN/A
12:50 PM72 °FPartly sunny.12 mph57%29.98 "HgN/A
12:20 PM72 °FPartly sunny.8 mph53%30.01 "HgN/A
11:50 AM72 °FScattered clouds.8 mph53%30.01 "HgN/A
11:20 AM72 °FScattered clouds.8 mph53%30.01 "HgN/A
10:50 AM72 °FScattered clouds.7 mph57%30.04 "HgN/A
10:20 AM70 °FScattered clouds.8 mph60%30.04 "HgN/A
8:50 AM66 °FScattered clouds.3 mph73%30.07 "HgN/A
8:20 AM63 °FPassing clouds.2 mph77%30.07 "HgN/A
7:50 AM61 °FPassing clouds.3 mph77%30.04 "HgN/A
7:20 AM59 °FPassing clouds.6 mph82%30.04 "HgN/A
6:50 AM59 °FPassing clouds.5 mph82%30.04 "HgN/A
6:20 AM59 °FPassing clouds.2 mph82%30.04 "HgN/A
5:50 AM57 °FPassing clouds.3 mph88%30.04 "HgN/A
5:20 AM59 °FPassing clouds.3 mph82%30.04 "HgN/A
4:50 AM57 °FPassing clouds.2 mph88%30.04 "HgN/A
4:20 AM57 °FClear.2 mph88%30.04 "Hg10 mi
3:50 AM59 °FClear.5 mph82%30.04 "Hg10 mi
2:50 AM59 °FPassing clouds.3 mph82%30.04 "HgN/A
2:20 AM59 °FPassing clouds.5 mph82%30.04 "HgN/A
1:50 AM59 °FPassing clouds.5 mph82%30.07 "HgN/A
12:50 AM61 °FPassing clouds.2 mph83%30.07 "HgN/A
12:20 AM61 °FPassing clouds.3 mph83%30.07 "HgN/A
11:50 PM
Sun, Nov 29
61 °FPassing clouds.2 mph83%30.07 "HgN/A
11:20 PM61 °FPassing clouds.3 mph83%30.07 "HgN/A
10:50 PM63 °FPassing clouds.3 mph77%30.07 "HgN/A
10:20 PM63 °FPassing clouds.2 mph77%30.09 "HgN/A
9:50 PM63 °FPassing clouds.3 mph77%30.07 "HgN/A
9:20 PM63 °FPassing clouds.3 mph83%30.07 "HgN/A
8:50 PM63 °FPassing clouds.3 mph83%30.07 "HgN/A
8:20 PM64 °FPassing clouds.5 mph78%30.07 "HgN/A
7:50 PM64 °FPassing clouds.5 mph78%30.09 "HgN/A
7:20 PM66 °FClear.3 mph78%30.09 "Hg10 mi
6:50 PM68 °FClear.3 mph73%30.09 "Hg10 mi
6:20 PM66 °FPassing clouds.2 mph78%30.09 "HgN/A
5:50 PM68 °FPassing clouds.3 mph73%30.07 "HgN/A
5:20 PM68 °FPassing clouds.3 mph69%30.07 "HgN/A
4:50 PM70 °FClear.5 mph69%30.07 "Hg10 mi
4:20 PM70 °FPassing clouds.7 mph69%30.07 "HgN/A
3:50 PM72 °FPassing clouds.8 mph61%30.07 "HgN/A
3:20 PM72 °FPassing clouds.8 mph57%30.07 "HgN/A
2:50 PM72 °FPassing clouds.8 mph57%30.04 "HgN/A
2:20 PM73 °FPassing clouds.9 mph53%30.04 "HgN/A
Weather by CustomWeather, © 2015

See weather overviewHow to use our weather pages